Location: Tamazert
(32.6352°N, 5.2072°W)
Time: 22:31:16
(UTC+00:00)

Cosmos 1295 Rocket - Pass Details

Date: 22 May 2022
Orbit: 945 x 993 km, 82.9° (Epoch: 24 June)

Event Time Altitude Azimuth Distance (km) Brightness Sun altitude
Rises 03:28:56 0° 350° (N) 3,703 8.0 -20.0°
Reaches altitude 10° 03:31:29 10° 348° (NNW) 2,755 7.2 -19.6°
Maximum altitude 03:37:44 68° 267° (W) 1,066 4.5 -18.6°
Enters shadow 03:42:41 17° 188° (S) 2,271 6.0 -17.8°
